West Tisbury, MA

1:59 AM EDT on August 31, 2016 (GMT -0400)
Martha's Vineyard

Weather History for KMVY - March, 2013

Change the Weather History Date:

Thursday, March 14, 2013

  Actual Average Record
Temperature  
Mean Temperature 32 °F -  
Max Temperature 37 °F 46 °F 68 °F (1990)
Min Temperature 26 °F 29 °F 17 °F (1992)
Degree Days  
Heating Degree Days 33    
Moisture  
Dew Point 19 °F    
Average Humidity 58    
Maximum Humidity 85    
Minimum Humidity 38    
Precipitation  
Precipitation 0.00 in - - ()
Sea Level Pressure  
Sea Level Pressure 29.78 in    
Wind  
Wind Speed 9 mph (WNW)    
Max Wind Speed 24 mph    
Max Gust Speed 33 mph    
Visibility 10 miles    
Events Snow    
Averages and records for this station are not official NWS values.
T = Trace of Precipitation, MM = Missing Value Source: NWS Daily Summary

Daily Weather History Graph

Daily Weather History Graph

Search for Another Location

Airport or City:

Trip Planner

Search our weather history database for the weather conditions in past years. The results will help you decide how hot, cold, wet, or windy it might be!

Date:

Astronomy

Mar. 14, 2013 Rise Set
Actual Time 6:55 AM EDT 6:48 PM EDT
Civil Twilight 6:28 AM EDT 7:15 PM EDT
Nautical Twilight 5:55 AM EDT 7:47 PM EDT
Astronomical Twilight 5:23 AM EDT 8:20 PM EDT
Moon 8:05 AM EDT (3/14) 10:04 PM EDT (3/14)
Length of Visible Light 12h 47m
Length of Day
11h 52m
Waxing Crescent, 9% of the Moon is Illuminated
Mar 14
Waxing Crescent
Mar 19
First Quarter
Mar 27
Full
Apr 3
Last Quarter
Apr 10
New

Hourly Weather History & Observations

Time (EDT) Temp. Windchill Dew Point Humidity Pressure Visibility Wind Dir Wind Speed Gust Speed Precip Events Conditions
12:53 AM 33.1 °F 27.7 °F 28.0 °F 82% 29.77 in 10.0 mi West 5.8 mph - N/A   Partly Cloudy
1:53 AM 32.0 °F 27.5 °F 28.0 °F 85% 29.78 in 10.0 mi WNW 4.6 mph - N/A   Overcast
2:53 AM 34.0 °F 29.8 °F 30.0 °F 85% 29.77 in 10.0 mi WNW 4.6 mph - N/A   Mostly Cloudy
3:53 AM 37.0 °F 32.4 °F 28.9 °F 73% 29.77 in 10.0 mi WNW 5.8 mph - N/A   Overcast
4:53 AM 35.1 °F 29.3 °F 27.0 °F 72% 29.77 in 10.0 mi WNW 6.9 mph - N/A   Overcast
5:53 AM 34.0 °F 29.8 °F 26.1 °F 73% 29.77 in 10.0 mi WNW 4.6 mph - N/A   Clear
6:53 AM 32.0 °F 27.5 °F 26.1 °F 79% 29.78 in 10.0 mi WNW 4.6 mph - N/A   Mostly Cloudy
7:53 AM 35.1 °F 28.6 °F 26.1 °F 70% 29.79 in 10.0 mi WNW 8.1 mph - N/A   Overcast
8:53 AM 35.1 °F 27.9 °F 24.1 °F 64% 29.80 in 10.0 mi WNW 9.2 mph - N/A   Overcast
9:53 AM 34.0 °F 26.6 °F 25.0 °F 70% 29.80 in 7.0 mi WNW 9.2 mph - 0.00 in Snow Light Snow
10:53 AM 36.0 °F 28.0 °F 24.1 °F 62% 29.78 in 10.0 mi West 11.5 mph 16.1 mph 0.00 in   Overcast
11:53 AM 37.0 °F 29.8 °F 23.0 °F 57% 29.76 in 10.0 mi WNW 10.4 mph 19.6 mph N/A   Overcast
12:53 PM 37.0 °F 28.9 °F 21.9 °F 54% 29.75 in 8.0 mi WNW 12.7 mph 20.7 mph 0.00 in Snow Light Snow
1:53 PM 36.0 °F 26.3 °F 14.0 °F 41% 29.73 in 10.0 mi West 16.1 mph 23.0 mph 0.00 in   Overcast
2:53 PM 34.0 °F 23.0 °F 15.1 °F 46% 29.72 in 10.0 mi WNW 18.4 mph 26.5 mph N/A   Overcast
3:53 PM 35.1 °F 25.2 °F 12.0 °F 39% 29.73 in 10.0 mi West 16.1 mph 26.5 mph N/A   Overcast
4:53 PM 34.0 °F 24.6 °F 10.9 °F 38% 29.73 in 10.0 mi NW 13.8 mph 24.2 mph N/A   Overcast
5:53 PM 32.0 °F 21.2 °F 10.0 °F 40% 29.74 in 10.0 mi NW 16.1 mph 24.2 mph N/A   Overcast
6:53 PM 30.0 °F 17.2 °F 9.0 °F 41% 29.78 in 10.0 mi WNW 20.7 mph 33.4 mph N/A   Overcast
7:53 PM 28.0 °F 17.0 °F 9.0 °F 45% 29.80 in 10.0 mi NW 13.8 mph 21.9 mph N/A   Scattered Clouds
8:53 PM 28.9 °F 14.8 °F 9.0 °F 43% 29.80 in 10.0 mi NW 24.2 mph 31.1 mph N/A   Scattered Clouds
9:53 PM 28.0 °F 15.7 °F 9.0 °F 45% 29.82 in 10.0 mi WNW 17.3 mph 28.8 mph N/A   Mostly Cloudy
10:53 PM 27.0 °F 15.6 °F 6.1 °F 41% 29.83 in 10.0 mi NW 13.8 mph 33.4 mph N/A   Partly Cloudy
11:53 PM 26.1 °F 14.5 °F 7.0 °F 44% 29.84 in 10.0 mi NW 13.8 mph 21.9 mph N/A   Clear